TITAN 3C TRANSTAGE DEB, 43455

Orbit data source: Space-Track

TITAN 3C TRANSTAGE DEB, 43455 is space debris in GEO originally from a launch on Sun, 09 Feb 1969 UTC launched from the Air Force Eastern Test Range (AFETR). Debris objects in space refer to the collection of defunct objects orbiting the Earth. Examples of debris include non-operational satellites, rocket bodies, and fragments generated from explosions, collisions, or faulty payload assembly.

Not visible in the next 10 days
Identifier
43455, 1969-013N
Orbit
GEO
Country
Flag of USUS
Related business
Manufacturer
Martin Marietta
Mission
Spacecraft
Bus & Motor
Unknown
Mass
Unknown
Launch date (UTC)
1969-02-09 (57 years ago)
Launch vehicle
Unknown
Launch site
Air Force Eastern Test Range (AFETR)
Object type
Payload
Rocket body
Debris
Shape & HBR
Unknown
Radar Cross Section
RCS unknown

Expand to show TLE details & history
Last TLE update: 21 hours ago

TLE from 21 hours ago
0 TITAN 3C TRANSTAGE DEB
1 43455U 69013N   25258.02652550 -.00000213  00000-0  00000-0 0  9994
2 43455   1.2856 168.0444 0217476  12.0460 348.3294  0.94027613 25767
Epoch: 2025-09-15T00:38Z
TLE epoch observation values (Epoch: 2025-09-15T00:38:11.803Z)
Latitude
-0.00001°
Longitude
164.11265°
Altitude
36,692.31 km
Speed
3.075 km/s
True Right ascension
11h 11m 35s
True Declination
0° 00' 00"
Sunlit
Object was in daylight at epoch
Visualization orbit readout
Latitude
Unknown
Longitude
Unknown
Altitude
Unknown
Speed
Unknown
Apparent Right ascension
Unknown
Apparent Declination
Unknown
Sunlit
N/A
Visualization observer readout
Local Sidereal Time
13:52:23
Azimuth
Unknown
Elevation
Unknown
Doppler factor
Unknown
Orbital elements
Apogee altitude
38,591.426 km
Perigee altitude
36,677.098 km
Semi-major axis
44,012.399 km
Eccentricity
0.02175
Inclination
1.2856°
RAAN
168.0444°
Arg. of periapsis
12.046°
True anomaly
347.81152°
Mean anomaly
348.3294°
Eccentric anomaly
348.07186°
Mean motion
0.23506 °/min
Orbital period
1,531.52 mins
BSTAR
0
Loading maneuver chart data...
Computing Atmospheric mass density...

Documentation

Showing up to 5 results
|